| time (UTC) | temp F | wind direction | speed MPH | gust MPH | rain 1hr in | rain 24hr in | rain mn in | humidity % | barometer mb |
| 20260505140143 | 55 | 190 | 1.0 | 5.0 | 0.00 | 0.00 | 0.00 | 39 | 1014.7 |
| 20260505130104 | 55 | 0 | 2.0 | 10.0 | 0.00 | 0.00 | 0.00 | 44 | 1015.1 |
| 20260505124544 | 55 | 303 | 1.0 | 8.0 | 0.00 | 0.00 | 0.00 | 48 | 1015.1 |
| 20260505123044 | 55 | 0 | 0.0 | 5.0 | 0.00 | 0.00 | 0.00 | 47 | 1014.5 |
| 20260505121548 | 55 | 0 | 0.0 | 3.0 | 0.00 | 0.00 | 0.00 | 45 | 1014.4 |
| 20260505120050 | 55 | 0 | 0.0 | 5.0 | 0.00 | 0.00 | 0.00 | 45 | 1014.2 |
| 20260505114541 | 55 | 0 | 1.0 | 5.0 | 0.00 | 0.00 | 0.00 | 44 | 1013.9 |
| 20260505113046 | 56 | 313 | 1.0 | 6.0 | 0.00 | 0.00 | 0.00 | 44 | 1013.8 |
| 20260505111542 | 56 | 9 | 0.0 | 7.0 | 0.00 | 0.00 | 0.00 | 42 | 1014.1 |
| 20260505101543 | 57 | 0 | 3.0 | 11.0 | 0.00 | 0.00 | 0.00 | 38 | 1014.0 |
| 20260505100043 | 57 | 0 | 0.0 | 3.0 | 0.00 | 0.00 | 0.00 | 37 | 1013.9 |
| 20260505094541 | 57 | 344 | 3.0 | 10.0 | 0.00 | 0.00 | 0.00 | 36 | 1013.9 |
| 20260505093041 | 57 | 65 | 0.0 | 4.0 | 0.00 | 0.00 | 0.00 | 37 | 1013.6 |
| 20260505091540 | 57 | 331 | 1.0 | 9.0 | 0.00 | 0.00 | 0.00 | 36 | 1013.7 |
| 20260505090040 | 57 | 57 | 3.0 | 8.0 | 0.00 | 0.00 | 0.00 | 36 | 1013.9 |
| 20260505084540 | 58 | 63 | 1.0 | 7.0 | 0.00 | 0.00 | 0.00 | 36 | 1014.4 |
| 20260505083038 | 58 | 355 | 1.0 | 8.0 | 0.00 | 0.00 | 0.00 | 36 | 1014.6 |
| 20260505081550 | 58 | 360 | 0.0 | 7.0 | 0.00 | 0.00 | 0.00 | 36 | 1014.6 |
| 20260505080047 | 58 | 32 | 1.0 | 7.0 | 0.00 | 0.00 | 0.00 | 36 | 1014.9 |
| 20260505074541 | 59 | 0 | 2.0 | 10.0 | 0.00 | 0.00 | 0.00 | 35 | 1015.2 |
| 20260505073050 | 59 | 97 | 4.0 | 9.0 | 0.00 | 0.00 | 0.00 | 34 | 1015.2 |
| 20260505071549 | 59 | 355 | 1.0 | 10.0 | 0.00 | 0.00 | 0.00 | 34 | 1015.1 |
| 20260505070045 | 60 | 244 | 2.0 | 5.0 | 0.00 | 0.00 | 0.00 | 32 | 1014.6 |
| 20260505064543 | 60 | 246 | 2.0 | 12.0 | 0.00 | 0.00 | 0.00 | 31 | 1014.5 |
| 20260505063040 | 61 | 305 | 5.0 | 24.0 | 0.00 | 0.00 | 0.00 | 29 | 1014.5 |
| 20260505061556 | 61 | 298 | 1.0 | 6.0 | 0.00 | 0.00 | 0.00 | 28 | 1014.4 |
| 20260505060046 | 62 | 276 | 2.0 | 11.0 | 0.00 | 0.00 | 0.00 | 28 | 1014.4 |
| 20260505054552 | 62 | 259 | 3.0 | 8.0 | 0.00 | 0.00 | 0.00 | 27 | 1014.4 |
| 20260505053053 | 63 | 208 | 3.0 | 11.0 | 0.00 | 0.00 | 0.00 | 27 | 1014.4 |
| 20260505051538 | 63 | 238 | 6.0 | 12.0 | 0.00 | 0.00 | 0.00 | 27 | 1014.3 |
| 20260505041542 | 65 | 258 | 4.0 | 14.0 | 0.00 | 0.00 | 0.00 | 26 | 1013.9 |
| 20260505040043 | 65 | 259 | 1.0 | 6.0 | 0.00 | 0.00 | 0.00 | 27 | 1013.8 |
| 20260505034540 | 65 | 246 | 1.0 | 8.0 | 0.00 | 0.00 | 0.00 | 27 | 1013.7 |
| 20260505033044 | 65 | 0 | 2.0 | 8.0 | 0.00 | 0.00 | 0.00 | 28 | 1013.5 |
| 20260505031541 | 65 | 283 | 1.0 | 5.0 | 0.00 | 0.00 | 0.00 | 28 | 1013.3 |
| 20260505030040 | 65 | 0 | 0.0 | 3.0 | 0.00 | 0.00 | 0.00 | 27 | 1013.0 |
| 20260505024545 | 66 | 289 | 2.0 | 4.0 | 0.00 | 0.00 | 0.00 | 27 | 1012.9 |
| 20260505023047 | 66 | 294 | 3.0 | 9.0 | 0.00 | 0.00 | 0.00 | 26 | 1013.0 |
| 20260505021542 | 66 | 243 | 2.0 | 12.0 | 0.00 | 0.00 | 0.00 | 25 | 1013.0 |
| 20260505020041 | 67 | 333 | 4.0 | 12.0 | 0.00 | 0.00 | 0.00 | 25 | 1012.9 |
| 20260505014548 | 67 | 304 | 4.0 | 15.0 | 0.00 | 0.00 | 0.00 | 24 | 1012.9 |
| 20260505013044 | 68 | 294 | 5.0 | 15.0 | 0.00 | 0.00 | 0.00 | 23 | 1012.8 |
| 20260505011549 | 68 | 302 | 4.0 | 10.0 | 0.00 | 0.00 | 0.00 | 22 | 1012.6 |
| 20260505010040 | 69 | 229 | 6.0 | 15.0 | 0.00 | 0.00 | 0.00 | 21 | 1012.6 |
| 20260505004541 | 69 | 272 | 8.0 | 18.0 | 0.00 | 0.00 | 0.00 | 20 | 1012.5 |
| 20260505003039 | 70 | 301 | 7.0 | 16.0 | 0.00 | 0.00 | 0.00 | 19 | 1012.6 |
| 20260505001534 | 70 | 250 | 5.0 | 14.0 | 0.00 | 0.00 | 0.00 | 18 | 1012.6 |
| 20260505000040 | 71 | 199 | 6.0 | 12.0 | 0.00 | 0.00 | 0.00 | 18 | 1012.2 |
| 20260504234542 | 71 | 248 | 6.0 | 16.0 | 0.00 | 0.00 | 0.00 | 17 | 1012.3 |
| 20260504233043 | 72 | 286 | 4.0 | 14.0 | 0.00 | 0.00 | 0.00 | 17 | 1012.4 |
| 20260504231539 | 72 | 275 | 7.0 | 16.0 | 0.00 | 0.00 | 0.00 | 17 | 1012.5 |
| 20260504230035 | 73 | 228 | 5.0 | 15.0 | 0.00 | 0.00 | 0.00 | 17 | 1012.2 |
| 20260504224542 | 73 | 280 | 5.0 | 12.0 | 0.00 | 0.00 | 0.00 | 17 | 1012.5 |
| 20260504223043 | 73 | 290 | 7.0 | 14.0 | 0.00 | 0.00 | 0.00 | 17 | 1012.9 |
| 20260504221543 | 73 | 285 | 7.0 | 18.0 | 0.00 | 0.00 | 0.00 | 17 | 1012.9 |
| 20260504220046 | 73 | 290 | 9.0 | 18.0 | 0.00 | 0.00 | 0.00 | 17 | 1013.2 |
| 20260504214554 | 73 | 315 | 4.0 | 13.0 | 0.00 | 0.00 | 0.00 | 18 | 1013.4 |
| 20260504213056 | 72 | 246 | 4.0 | 17.0 | 0.00 | 0.00 | 0.00 | 18 | 1013.7 |
| 20260504211542 | 73 | 311 | 3.0 | 12.0 | 0.00 | 0.00 | 0.00 | 19 | 1013.8 |
| 20260504210041 | 72 | 323 | 5.0 | 15.0 | 0.00 | 0.00 | 0.00 | 19 | 1014.1 |
| 20260504204545 | 71 | 287 | 5.0 | 20.0 | 0.00 | 0.00 | 0.00 | 19 | 1014.4 |
| 20260504203038 | 71 | 333 | 7.0 | 17.0 | 0.00 | 0.00 | 0.00 | 19 | 1014.7 |
| 20260504201543 | 71 | 265 | 4.0 | 16.0 | 0.00 | 0.00 | 0.00 | 18 | 1015.1 |
| 20260504200049 | 71 | 196 | 6.0 | 12.0 | 0.00 | 0.00 | 0.00 | 17 | 1015.4 |
| 20260504194544 | 71 | 273 | 7.0 | 17.0 | 0.00 | 0.00 | 0.00 | 19 | 1015.3 |
| 20260504193039 | 72 | 301 | 6.0 | 14.0 | 0.00 | 0.00 | 0.00 | 21 | 1015.5 |
| 20260504191551 | 71 | 268 | 3.0 | 13.0 | 0.00 | 0.00 | 0.00 | 20 | 1015.8 |
| 20260504190043 | 71 | 242 | 2.0 | 14.0 | 0.00 | 0.00 | 0.00 | 19 | 1016.0 |
| 20260504184552 | 71 | 268 | 6.0 | 18.0 | 0.00 | 0.00 | 0.00 | 19 | 1016.3 |
| 20260504183049 | 70 | 248 | 5.0 | 13.0 | 0.00 | 0.00 | 0.00 | 21 | 1016.4 |
| 20260504181546 | 68 | 221 | 6.0 | 15.0 | 0.00 | 0.00 | 0.00 | 23 | 1016.4 |
| 20260504180039 | 67 | 282 | 4.0 | 14.0 | 0.00 | 0.00 | 0.00 | 24 | 1016.8 |
| 20260504174540 | 67 | 214 | 4.0 | 16.0 | 0.00 | 0.00 | 0.00 | 25 | 1016.7 |
| 20260504173041 | 67 | 355 | 2.0 | 11.0 | 0.00 | 0.00 | 0.00 | 26 | 1016.8 |
| 20260504171541 | 67 | 307 | 4.0 | 11.0 | 0.00 | 0.00 | 0.00 | 28 | 1016.9 |